Location: Kent Woodlands
(37.9494°N, 122.5633°W)
Time: 14:28:56
(UTC+00:00)

Daily predictions for brighter satellites

Satellite Brightness Start Highest point End
(mag) Time Altitude Azimuth Time Altitude Azimuth Time Altitude Azimuth
Cosmos 2344 4.0 12:32:47 13° S 12:39:36 56° ESE 12:47:05 10° NE
CZ-3A R/B 4.3 12:36:45 30° SSW 12:40:07 39° SSE 13:08:48 10° E
Cosmos 2219 3.4 12:47:57 68° ENE 12:47:57 68° ENE 12:53:39 10° SSE
Cosmos 1932 4.4 12:55:37 79° WSW 12:55:37 79° WSW 13:02:05 10° SSE
Cosmos 44 3.9 12:59:05 48° ESE 12:59:05 48° ESE 13:02:32 10° SE
Cosmos 783 Rocket 4.4 13:06:17 60° S 13:07:16 84° ESE 13:12:31 10° NNE
Cosmos 2297 Rocket 2.4 13:06:41 41° N 13:08:39 70° ENE 13:14:16 10° SSE
Lacrosse 5 rocket 4.0 13:14:22 13° N 13:14:22 13° N 13:15:02 10° NNE
SKYMED 2 4.0 13:11:36 10° SSE 13:15:51 59° ENE 13:17:39 32° N
Cosmos 1758 4.1 13:12:12 10° S 13:16:06 52° E 13:20:00 10° NNE
Nadezhda 1 Rocket 4.1 13:11:53 10° S 13:17:56 72° E 13:23:59 10° N
Okean O Rocket 3.3 13:15:49 10° NNE 13:19:52 33° E 13:23:53 10° SSE
Cosmos 2227 Rocket 2.2 13:17:34 34° NNW 13:20:10 79° ENE 13:25:48 10° SSE
NOSS 2-2 (C) 4.0 13:20:19 37° SSE 13:21:11 46° ESE 13:24:48 10° NE
Cosmos 1953 4.0 13:21:22 10° SSE 13:25:00 34° E 13:28:42 10° NNE
CZ-3B R/B 3.0 13:27:58 19° SSW 13:29:05 21° S 13:32:52 10° SE
Cosmos 2278 4.1 13:24:46 10° S 13:30:25 66° ESE 13:36:05 10° NNE
Cosmos 773 Rocket 4.0 13:26:21 10° SSW 13:31:38 81° ESE 13:36:57 10° NNE
SJ-12 3.7 13:27:44 10° N 13:31:49 81° W 13:35:52 10° SSW
NOSS 2-2 (E) 3.0 13:32:25 78° S 13:32:37 85° ESE 13:36:29 10° NNE
Cosmos 1626 2.0 13:34:23 64° N 13:34:54 88° E 13:38:37 10° S
Cosmos 1626 Rocket 3.3 13:35:11 33° NNW 13:37:06 79° W 13:41:26 10° S
Cosmos 2369 3.6 13:31:50 10° SSW 13:37:33 77° WNW 13:43:18 10° NNE
Cosmos 2184 Rocket 3.9 13:33:33 10° NNW 13:39:40 62° W 13:45:48 10° S
USA 215 3.2 13:34:37 10° SE 13:41:08 77° SW 13:45:03 27° NW
Cosmos 1656 4.0 13:41:59 39° WNW 13:42:17 39° WNW 13:47:23 10° N
MOS 1-B 4.2 13:36:37 10° NNE 13:42:25 79° WNW 13:48:12 10° SSW
PAYLOAD B 4.2 13:39:03 10° NNE 13:44:42 87° ESE 13:50:18 10° SSW
NOSS 8 (H) 4.2 13:45:29 65° NNW 13:45:29 65° NNW 13:48:15 10° NNE
USA 116 4.4 13:41:38 10° SSE 13:46:44 77° ENE 13:51:24 10° N
Cosmos 2154 Rocket 3.9 13:40:57 10° N 13:47:10 88° W 13:53:22 10° S
ALOS 2.2 13:45:46 10° N 13:50:21 58° WNW 13:54:55 10° SSW
Iridium 2 3.9 13:52:10 10° SSW 13:55:49 44° W 13:59:30 10° N
Cosmos 1242 Rocket 4.1 13:58:39 20° SW 13:58:39 20° SW 14:00:17 10° SSW
Meteor 2-17 Rocket 4.5 13:51:22 10° N 13:57:29 82° E 14:03:32 10° S
Cosmos 1538 Rocket 3.9 13:52:23 10° SSW 13:57:45 82° WNW 14:03:06 10° NNE
Helios 1A Rocket 3.2 13:54:43 10° NNE 13:58:50 72° ESE 14:02:57 10° S
CZ-4B R/B 3.2 13:53:20 10° NNE 13:58:56 85° ESE 14:04:23 10° SSW
Cosmos 1726 3.1 13:57:28 10° SSE 14:01:01 47° E 14:04:35 10° NNE
Meteor 1-24 Rocket 4.4 13:59:36 21° NW 14:02:21 32° W 14:07:27 10° SSW
METEOR-M 4.2 13:57:11 10° N 14:02:22 51° WNW 14:07:30 10° SSW
Cosmos 1470 3.3 13:59:02 10° SW 14:02:41 36° WNW 14:06:23 10° N
COSMO-SKYMED 1 3.1 13:59:59 10° SSW 14:04:00 37° W 14:06:19 21° NW
ATLAS 2AS CENTAUR R/B 3.7 13:57:35 10° SSW 14:05:14 59° ESE 14:13:06 10° NE
Cosmos 1980 Rocket 2.1 14:01:41 10° SSW 14:07:22 84° WNW 14:13:06 10° NNE
CENTAUR R/B 4.5 14:00:48 10° NNW 14:07:59 34° NE 14:15:41 10° ESE
STARLINK-55 4.3 14:06:19 10° SSW 14:09:50 47° SE 14:13:22 10° ENE
Cosmos 1606 Rocket 3.7 14:06:52 10° S 14:11:19 80° E 14:15:47 10° N
STARLINK-26 3.1 14:09:46 20° WSW 14:12:04 64° NW 14:15:34 10° NE
Cosmos 1726 Rocket 3.9 14:10:33 10° S 14:14:57 68° E 14:19:23 10° NNE
STARLINK-41 4.5 14:11:34 10° SSW 14:15:20 47° SE 14:19:07 10° ENE
Cosmos 1697 Rocket 3.2 14:12:02 10° SW 14:17:12 37° WNW 14:22:23 10° N
ADEOS Rocket 3.1 14:12:14 10° SSE 14:17:42 67° ENE 14:23:11 10° N
USA 238 DEB 4.2 14:11:20 10° NNW 14:18:32 65° NE 14:25:55 10° SE
USA 238 4.3 14:11:27 10° NNW 14:18:38 65° NE 14:26:01 10° SE
FENGYUN 3A 4.2 14:14:48 10° N 14:19:41 36° WNW 14:24:33 10° SW
NOAA 6 4.2 14:17:19 10° N 14:22:21 52° WNW 14:27:21 10° SSW
Cosmos 1295 Rocket 4.5 14:16:29 10° NNW 14:22:35 60° W 14:28:35 10° S
STARLINK-34 4.1 14:18:42 10° SW 14:22:38 61° SE 14:26:37 10° NE
STARLINK 4.3 14:20:57 10° SSW 14:24:44 54° SE 14:28:34 10° ENE
STARLINK-24 4.0 14:20:57 10° SW 14:24:55 63° SE 14:28:54 10° NE
STARLINK-81 4.2 14:21:34 10° SSW 14:25:30 58° SE 14:29:28 10° NE
BREEZE-M DEB (TANK) 4.1 14:23:05 16° NW 14:25:45 31° N 14:34:54 10° ENE
STARLINK-54 3.9 14:23:19 10° SW 14:27:18 67° SE 14:31:18 10° NE
SEDSat Delta rocket 4.4 14:22:53 10° WSW 14:28:18 42° S 14:33:02 10° ESE
STARLINK-77 4.0 14:24:49 10° SW 14:28:47 63° SE 14:32:46 10° NE
STARLINK-25 4.0 14:26:28 10° SW 14:30:26 65° SE 14:34:25 10° NE
STARLINK-28 3.2 14:27:50 10° SW 14:31:23 86° SE 14:34:56 10° NE
STARLINK-71 3.7 14:28:17 10° SW 14:32:17 76° SE 14:36:19 10° NE
Cosmos 1680 Rocket 4.0 14:27:35 10° S 14:32:50 67° ESE 14:38:08 10° NNE
NOSS 2-2 (D) 4.1 14:30:13 11° WSW 14:33:09 26° NW 14:36:29 10° N
STARLINK-79 3.8 14:29:45 10° SW 14:33:44 71° SE 14:37:45 10° NE
SL-4 R/B 3.6 14:31:25 10° NNW 14:34:02 19° NNE 14:36:35 10° ENE
STARLINK-78 3.8 14:31:25 10° SW 14:35:25 74° SE 14:39:26 10° NE
Meteor 2-10 4.1 14:30:28 10° SSW 14:36:05 71° W 14:41:35 10° N
STARLINK-57 3.6 14:33:09 10° SW 14:37:10 81° SE 14:41:12 10° NE
Cosmos 2082 4.3 14:32:29 10° NW 14:37:40 37° WSW 14:42:51 10° S
Envisat 3.9 14:33:26 10° NNE 14:38:26 55° E 14:43:24 10° S
STARLINK-49 3.7 14:34:41 10° SW 14:38:42 79° SE 14:42:44 10° NE
Cosmos 2181 Rocket 4.0 14:32:51 10° SSW 14:38:58 67° W 14:45:12 10° N
STARLINK-27 3.6 14:36:21 10° SW 14:40:22 82° SE 14:44:24 10° NE
Cosmos 44 Rocket 3.2 14:36:33 10° NW 14:41:15 72° WSW 14:45:59 10° SSE
CZ-4 R/B 4.1 14:38:11 10° NE 14:41:42 25° E 14:45:10 10° SSE
STARLINK-67 2.9 14:39:44 14° WNW 14:41:51 46° SW 14:44:26 10° SSE
STARLINK-74 3.6 14:38:00 10° SW 14:42:01 84° SE 14:46:03 10° NE
STARLINK-39 3.6 14:39:38 10° SW 14:43:40 88° SE 14:47:42 10° NE
STARLINK 3.5 14:41:17 10° SW 14:45:18 89° NW 14:49:21 10° NE
Cosmos 2341 Rocket 4.2 14:39:57 10° NNW 14:46:01 52° W 14:51:59 10° SSW
STARLINK-69 3.5 14:43:08 10° SW 14:47:09 79° NW 14:51:10 10° NE
Okean-O 3.5 14:43:34 10° NNE 14:47:56 56° E 14:52:17 10° S
Cosmos 2112 Rocket 4.3 14:42:47 10° SSW 14:48:06 79° ESE 14:53:29 10° NNE
STARLINK-21 3.5 14:44:38 10° SW 14:48:40 83° NW 14:52:42 10° NE
COSMOS 2455 3.1 14:44:19 10° SW 14:50:06 48° WNW 14:55:55 10° NNE
STARLINK-45 3.5 14:46:31 10° SW 14:50:31 72° NW 14:54:32 10° NE
Cosmos 2297 Rocket 3.8 14:49:10 10° WNW 14:51:58 14° W 14:54:46 10° SW
STARLINK-70 3.5 14:48:20 10° SW 14:52:20 72° NW 14:56:20 10° NE
SMAP 3.1 14:47:48 10° N 14:52:22 59° WNW 14:56:56 10° SSW
Cosmos 972 Rocket 4.4 14:46:28 10° NNW 14:52:44 64° W 14:58:16 10° S
STARLINK-76 3.5 14:49:36 10° SW 14:53:37 75° NW 14:57:39 10° NE
Cosmos 2322 Rocket 3.0 14:48:14 10° S 14:53:44 58° ESE 14:59:18 10° NNE
Cosmos 2344 4.4 14:48:06 10° W 14:54:29 29° NW 15:01:27 10° NNE
STARLINK 3.5 14:51:16 10° SW 14:55:16 72° NW 14:59:18 10° NE
Okean O Rocket 2.9 14:52:41 10° NNW 14:55:58 21° WNW 14:59:15 10° WSW
Cosmos 2228 3.7 14:51:59 10° SW 14:55:59 34° WNW 15:00:02 10° NNW
CORIOLIS 4.1 14:50:43 10° N 14:56:04 78° WNW 15:01:25 10° SSW
STARLINK-32 3.5 14:52:54 10° SW 14:56:54 69° NW 15:00:55 10° NE
STARLINK-40 3.5 14:54:34 10° WSW 14:58:35 67° NW 15:02:35 10° NE
SL-8 Rocket 4.1 14:53:40 10° NNW 14:59:44 56° W 15:05:43 10° SSW
STARLINK-44 3.5 14:56:15 10° WSW 15:00:14 65° NW 15:04:16 10° NE
Cosmos 1953 Rocket 3.9 14:57:01 10° NNW 15:01:17 46° W 15:05:29 10° SSW
